[[{"header":{"parameterUnit":"m.s-1","parameterCategory":1,"la1":30.2991,"la2":30.254,"lo1":-89.0895,"lo2":-89.0444,"dy":0.0017,"dx":0.0017,"nx":28,"ny":28,"refTime":"2024-08-06T03:00:00:Z","depth":0,"parameterNumber":2,"parameterNumberName":"U-component_of_WINDS"},"data":[0,0,0,0,0,0,0,0,0,0,0,0,0,0,0,0,0,0,0,0,0,0,0,0,0,0,0,0,0,0,0,0,0,0,0,0,0,0,0,0,0,0,0,0,0,0,0,0,0,0,0,0,0,0,0,0,0,0,-0.2986,-0.2986,0,-0.298,-0.298,-0.298,-0.2977,-0.2977,-0.2977,-0.2977,-0.297,-0.297,-0.297,0,0,0,0,0,0,0,0,0,0,0,0,0,-0.299,-0.299,-0.2986,-0.2986,-0.2986,-0.298,-0.298,-0.298,-0.2977,-0.2977,-0.2977,-0.2977,-0.297,-0.297,-0.297,0,0,0,0,0,0,0,0,0,0,0,0,0,-0.2987,-0.299,-0.2986,-0.2983,-0.2983,-0.298,-0.298,-0.298,-0.2977,-0.2977,-0.2977,-0.2977,-0.297,-0.297,-0.297,-0.2968,0,0,-0.2969,-0.2969,0,0,0,0,0,0,0,0,-0.2987,-0.2987,-0.2984,-0.2984,-0.2983,-0.2979,-0.2979,-0.2976,-0.2977,-0.2979,-0.2977,-0.2977,-0.2973,-0.2973,-0.2972,-0.2968,-0.2968,-0.2969,-0.2969,-0.2969,-0.2969,0,0,0,0,0,0,0,-0.2987,-0.2987,-0.2984,-0.2984,-0.2983,-0.2982,-0.2981,-0.2979,-0.2976,-0.2979,-0.2979,-0.2978,-0.2973,-0.2972,-0.2971,-0.2968,-0.2969,-0.2969,-0.2969,-0.2968,-0.296,-0.296,0,0,0,0,0,0,-0.2988,-0.2987,-0.2984,-0.2983,-0.2985,-0.2982,-0.2981,-0.2981,-0.2976,-0.2976,-0.2978,-0.2978,-0.2972,-0.2972,-0.2971,-0.2968,-0.2969,-0.2968,-0.2968,-0.296,-0.296,-0.296,0,0,0,0,0,0,-0.2988,-0.2988,-0.2984,-0.2985,-0.2985,-0.2982,-0.2981,-0.2981,-0.298,-0.2976,-0.2975,-0.2978,-0.2972,-0.2972,-0.2969,-0.2968,-0.2968,-0.2968,-0.296,-0.296,-0.296,-0.2962,0,0,0,0,0,0,-0.2988,-0.2988,-0.2988,-0.2985,-0.2985,-0.2983,-0.2981,-0.298,-0.2979,-0.2979,-0.2975,-0.2975,-0.2972,-0.2969,-0.2968,-0.2967,-0.2968,-0.296,-0.296,-0.296,-0.2962,-0.2962,-0.2962,0,0,0,0,0,-0.2989,-0.299,-0.2989,-0.2988,-0.2985,-0.2983,-0.2982,-0.298,-0.2979,-0.2979,-0.2976,-0.2975,-0.2968,-0.2969,-0.2968,-0.2967,-0.296,-0.296,-0.296,-0.2962,-0.2962,-0.2962,0,0,0,0,0,0,-0.2993,-0.2989,-0.2988,-0.2988,-0.2986,-0.2982,-0.2982,-0.298,-0.2978,-0.2978,-0.2974,-0.2973,-0.297,-0.2968,-0.2969,-0.2964,-0.2964,-0.2963,-0.2966,-0.2965,-0.2965,-0.2966,-0.2968,0,0,0,0,0,-0.2994,-0.2993,-0.2989,-0.299,-0.2988,-0.2985,-0.2984,-0.2982,-0.298,-0.2978,-0.2976,-0.2972,-0.2969,-0.2967,-0.2964,-0.2962,-0.296,-0.296,-0.296,-0.296,-0.296,-0.2956,-0.2955,-0.2959,-0.2959,-0.2959,0,0,-0.2996,-0.2994,-0.2993,-0.299,-0.2988,-0.2986,-0.2985,-0.2983,-0.2981,-0.2978,-0.2975,-0.2972,-0.2968,-0.2965,-0.2963,-0.2963,-0.2958,-0.296,-0.296,-0.296,-0.2956,-0.2955,-0.2955,-0.2959,-0.2959,-0.2959,0,0,-0.2998,-0.2997,-0.2996,-0.2994,-0.299,-0.2988,-0.2988,-0.2984,-0.2982,-0.2979,-0.2976,-0.2973,-0.2968,-0.2964,-0.2962,-0.296,-0.2958,-0.2959,-0.2959,-0.2955,-0.2955,-0.2955,-0.2953,-0.2952,-0.2959,-0.2959,-0.2959,0,-0.3001,-0.2999,-0.2996,-0.2994,-0.2992,-0.2989,-0.2987,-0.2984,-0.298,-0.2978,-0.2978,-0.297,-0.2967,-0.2962,-0.2961,-0.296,-0.2958,-0.296,-0.2955,-0.2955,-0.2955,-0.2953,-0.2952,-0.2959,-0.2959,-0.2959,-0.2959,0,-0.3002,-0.3,-0.2999,-0.2995,-0.2992,-0.2991,-0.2986,-0.2984,-0.2982,-0.2979,-0.2974,-0.297,-0.2965,-0.2964,-0.2962,-0.2957,-0.2957,-0.2956,-0.2956,-0.2954,-0.2952,-0.2952,-0.2959,-0.2959,-0.2959,-0.2959,0,0,-0.3008,-0.3001,-0.3001,-0.2997,-0.2992,-0.299,-0.2987,-0.2982,-0.2979,-0.2976,-0.2972,-0.2967,-0.2965,-0.2962,-0.296,-0.2956,-0.2953,-0.2956,-0.2955,-0.2954,-0.2946,-0.2946,-0.2945,-0.2951,-0.2951,-0.2951,-0.2945,0,-0.3009,-0.3005,-0.3001,-0.2997,-0.2994,-0.2989,-0.2986,-0.2982,-0.2978,-0.2974,-0.297,-0.2965,-0.2964,-0.2962,-0.2959,-0.2954,-0.2951,-0.2955,-0.2946,-0.2946,-0.2947,-0.2944,-0.2945,-0.294,-0.2945,-0.2945,-0.2945,0,-0.3011,-0.3007,-0.3002,-0.2995,-0.2994,-0.2991,-0.2985,-0.2982,-0.2975,-0.2973,-0.2968,-0.2965,-0.296,-0.296,-0.2951,-0.2953,-0.295,-0.2946,-0.2946,-0.2945,-0.2945,-0.2942,-0.2939,-0.2938,-0.2943,-0.2944,-0.2944,0,-0.3014,-0.3008,-0.3004,-0.3001,-0.2993,-0.2991,-0.2988,-0.2982,-0.2978,-0.2972,-0.297,-0.2963,-0.296,-0.2954,-0.2948,-0.2949,-0.294,-0.294,-0.2936,-0.2936,-0.2935,-0.2935,-0.293,-0.2933,-0.2933,-0.2933,-0.2933,0,-0.3016,-0.3013,-0.3005,-0.3003,-0.2998,-0.2993,-0.2989,-0.2984,-0.2979,-0.2974,-0.297,-0.2965,-0.2958,-0.2952,-0.2948,-0.294,-0.2939,-0.2935,-0.2934,-0.2936,-0.2936,-0.2933,-0.2933,-0.2933,-0.2933,-0.2933,-0.2933,0,-0.302,-0.3015,-0.301,-0.3002,-0.3,-0.2997,-0.2989,-0.2986,-0.2981,-0.2975,-0.2973,-0.2965,-0.2958,-0.2952,-0.2942,-0.2939,-0.293,-0.2929,-0.2933,-0.2932,-0.2928,-0.2928,-0.2921,-0.2919,-0.2924,-0.2924,-0.2924,0,-0.3021,-0.3019,-0.301,-0.3007,-0.3003,-0.2998,-0.2994,-0.2987,-0.2983,-0.2974,-0.2971,-0.2964,-0.2957,-0.2945,-0.2938,-0.293,-0.2928,-0.2926,-0.2927,-0.2927,-0.2926,-0.2926,-0.2925,-0.2926,-0.2926,-0.2926,-0.2926,0,-0.3024,-0.302,-0.3015,-0.3008,-0.3003,-0.2998,-0.2992,-0.2989,-0.2981,-0.2976,-0.2968,-0.2963,-0.2952,-0.2944,-0.2934,-0.2929,-0.2925,-0.2925,-0.2924,-0.2925,-0.2926,-0.2924,-0.2931,-0.2925,-0.2925,-0.2925,-0.2925,-0.2925,-0.3026,-0.3022,-0.3015,-0.3008,-0.3003,-0.2997,-0.2992,-0.2986,-0.298,-0.2971,-0.2967,-0.2958,-0.295,-0.2937,-0.2931,-0.2923,-0.2923,-0.2921,-0.2921,-0.292,-0.2919,-0.2928,-0.2922,-0.2922,-0.2922,-0.2922,-0.2922,0,-0.3027,-0.3021,-0.3015,-0.3006,-0.3,-0.2997,-0.299,-0.2985,-0.2977,-0.297,-0.2963,-0.2952,-0.2943,-0.2935,-0.2925,-0.292,-0.2918,-0.2918,-0.2918,-0.2916,-0.2921,-0.2923,-0.2919,-0.2919,-0.2919,-0.2919,-0.2919,-0.2919,-0.3027,-0.302,-0.3016,-0.3005,-0.3,-0.2991,-0.2987,-0.298,-0.2974,-0.2963,-0.2955,-0.2949,-0.294,-0.2929,-0.292,-0.2918,-0.2914,-0.2914,-0.2911,-0.2916,-0.2916,-0.2916,-0.2918,-0.2913,-0.2913,-0.2906,-0.2906,-0.2906]},{"header":{"parameterUnit":"m.s-1","parameterCategory":1,"la1":30.2991,"la2":30.254,"lo1":-89.0895,"lo2":-89.0444,"dy":0.0017,"dx":0.0017,"nx":28,"ny":28,"refTime":"2024-08-06T03:00:00:Z","depth":0,"parameterNumber":3,"parameterNumberName":"V-component_of_WINDS"},"data":[0,0,0,0,0,0,0,0,0,0,0,0,0,0,0,0,0,0,0,0,0,0,0,0,0,0,0,0,0,0,0,0,0,0,0,0,0,0,0,0,0,0,0,0,0,0,0,0,0,0,0,0,0,0,0,0,0,0,-2.5351,-2.5351,0,-2.5337,-2.5336,-2.5336,-2.5369,-2.537,-2.5371,-2.5372,-2.5353,-2.5351,-2.535,0,0,0,0,0,0,0,0,0,0,0,0,0,-2.5406,-2.5405,-2.5351,-2.5351,-2.5351,-2.5337,-2.5336,-2.5336,-2.5368,-2.537,-2.5371,-2.5372,-2.5353,-2.5351,-2.5349,0,0,0,0,0,0,0,0,0,0,0,0,0,-2.5386,-2.5404,-2.5351,-2.5365,-2.5367,-2.5337,-2.5336,-2.5336,-2.5368,-2.537,-2.5371,-2.5373,-2.5354,-2.5351,-2.5349,-2.5304,0,0,-2.5342,-2.5341,0,0,0,0,0,0,0,0,-2.5387,-2.5384,-2.5364,-2.5364,-2.5366,-2.5356,-2.5349,-2.5325,-2.5368,-2.5367,-2.5372,-2.5373,-2.5352,-2.535,-2.5344,-2.5303,-2.5302,-2.5342,-2.5341,-2.534,-2.5339,0,0,0,0,0,0,0,-2.5388,-2.5384,-2.5345,-2.5363,-2.5364,-2.5372,-2.5371,-2.5344,-2.5351,-2.5367,-2.537,-2.5368,-2.5353,-2.5346,-2.5344,-2.5302,-2.5342,-2.534,-2.5339,-2.5338,-2.5224,-2.5223,0,0,0,0,0,0,-2.5388,-2.5385,-2.5346,-2.5345,-2.538,-2.537,-2.5368,-2.5357,-2.5351,-2.5352,-2.5367,-2.5369,-2.5349,-2.5346,-2.5343,-2.5289,-2.534,-2.5338,-2.5337,-2.5226,-2.5224,-2.5222,0,0,0,0,0,0,-2.5389,-2.5384,-2.5347,-2.5366,-2.5362,-2.5367,-2.5355,-2.5356,-2.5349,-2.5351,-2.5352,-2.5358,-2.535,-2.5346,-2.5314,-2.5289,-2.5337,-2.5335,-2.5228,-2.5225,-2.5223,-2.5181,0,0,0,0,0,0,-2.5391,-2.5385,-2.5367,-2.5365,-2.5361,-2.5317,-2.5353,-2.5355,-2.5346,-2.5349,-2.5343,-2.5343,-2.5351,-2.5317,-2.5312,-2.5286,-2.5333,-2.523,-2.5227,-2.5224,-2.5184,-2.5177,-2.5171,0,0,0,0,0,-2.5392,-2.5355,-2.5366,-2.5361,-2.5339,-2.5316,-2.5313,-2.5324,-2.5344,-2.5326,-2.5328,-2.5344,-2.5294,-2.5313,-2.5308,-2.5281,-2.5232,-2.5228,-2.5224,-2.5187,-2.5178,-2.5171,0,0,0,0,0,0,-2.5351,-2.5354,-2.5367,-2.5328,-2.5322,-2.5322,-2.5299,-2.5314,-2.5301,-2.5304,-2.5318,-2.5316,-2.5281,-2.5279,-2.5301,-2.5238,-2.5266,-2.5261,-2.524,-2.5231,-2.5225,-2.5224,-2.5331,0,0,0,0,0,-2.5338,-2.532,-2.5324,-2.5288,-2.5285,-2.5293,-2.5283,-2.5293,-2.5286,-2.5283,-2.5282,-2.5274,-2.5257,-2.5245,-2.5229,-2.5186,-2.5184,-2.5166,-2.5159,-2.5153,-2.5147,-2.5124,-2.5115,-2.521,-2.521,-2.521,0,0,-2.5309,-2.5309,-2.5296,-2.528,-2.5276,-2.5256,-2.529,-2.5267,-2.5252,-2.5279,-2.5248,-2.5248,-2.524,-2.5203,-2.5186,-2.5199,-2.5122,-2.5149,-2.5144,-2.5141,-2.5119,-2.5111,-2.5103,-2.5207,-2.5208,-2.5208,0,0,-2.5245,-2.5245,-2.5215,-2.5212,-2.5207,-2.5213,-2.5207,-2.5205,-2.5206,-2.5177,-2.5197,-2.518,-2.5149,-2.5143,-2.5136,-2.5076,-2.5089,-2.5071,-2.5034,-2.5011,-2.5004,-2.4997,-2.4974,-2.4965,-2.5066,-2.5066,-2.5066,0,-2.5209,-2.5181,-2.5198,-2.5174,-2.5166,-2.5194,-2.5164,-2.5159,-2.5149,-2.5142,-2.5159,-2.5124,-2.512,-2.5081,-2.5067,-2.5061,-2.5053,-2.5069,-2.5004,-2.4997,-2.4991,-2.4969,-2.496,-2.5063,-2.5063,-2.5064,-2.5064,0,-2.5136,-2.5117,-2.5094,-2.5085,-2.5076,-2.5049,-2.5061,-2.505,-2.5062,-2.5066,-2.5036,-2.5035,-2.5019,-2.5012,-2.5022,-2.4974,-2.4983,-2.5002,-2.5029,-2.498,-2.4959,-2.495,-2.506,-2.5061,-2.5061,-2.5062,0,0,-2.504,-2.5045,-2.5036,-2.5033,-2.5032,-2.5016,-2.4992,-2.4979,-2.4968,-2.4962,-2.494,-2.4917,-2.4935,-2.4927,-2.4938,-2.4919,-2.487,-2.494,-2.494,-2.4924,-2.4816,-2.4799,-2.4789,-2.4881,-2.488,-2.4879,-2.4816,0,-2.4976,-2.4934,-2.4951,-2.4907,-2.4889,-2.4917,-2.4896,-2.4893,-2.4898,-2.4883,-2.4889,-2.4871,-2.4898,-2.4893,-2.4876,-2.4879,-2.4847,-2.4885,-2.4859,-2.4858,-2.4856,-2.4778,-2.4759,-2.47,-2.4808,-2.4807,-2.4806,0,-2.4893,-2.4885,-2.4841,-2.4845,-2.4838,-2.4818,-2.4808,-2.4795,-2.4793,-2.4798,-2.4792,-2.4808,-2.4784,-2.4815,-2.4782,-2.4807,-2.4799,-2.48,-2.4798,-2.4792,-2.4825,-2.4767,-2.4681,-2.4671,-2.4793,-2.4794,-2.4795,0,-2.4824,-2.4803,-2.4774,-2.4771,-2.4775,-2.4761,-2.4762,-2.4762,-2.4754,-2.4746,-2.4741,-2.473,-2.4723,-2.4714,-2.4727,-2.4749,-2.4691,-2.4724,-2.4693,-2.4692,-2.4675,-2.4675,-2.4583,-2.4677,-2.4677,-2.4677,-2.4677,0,-2.4747,-2.4718,-2.4743,-2.4724,-2.4693,-2.4714,-2.4682,-2.4686,-2.4687,-2.4669,-2.4695,-2.4677,-2.4697,-2.4682,-2.4693,-2.4663,-2.466,-2.4663,-2.4665,-2.4658,-2.4657,-2.4649,-2.4651,-2.4675,-2.4675,-2.4676,-2.4676,0,-2.4662,-2.4678,-2.4648,-2.4657,-2.4658,-2.4634,-2.4642,-2.4625,-2.4634,-2.4612,-2.4608,-2.4621,-2.4605,-2.4619,-2.4603,-2.461,-2.457,-2.458,-2.457,-2.4571,-2.4538,-2.454,-2.4434,-2.442,-2.4527,-2.4526,-2.4525,0,-2.461,-2.4588,-2.4596,-2.4587,-2.4588,-2.4573,-2.4565,-2.4587,-2.4578,-2.4577,-2.4559,-2.4546,-2.4536,-2.4509,-2.4517,-2.4505,-2.4513,-2.4477,-2.4511,-2.4505,-2.4508,-2.4508,-2.4505,-2.4468,-2.4467,-2.4466,-2.4465,0,-2.4514,-2.4524,-2.4513,-2.4506,-2.4498,-2.4492,-2.4489,-2.448,-2.4503,-2.4492,-2.4477,-2.4469,-2.4455,-2.444,-2.4432,-2.4433,-2.4451,-2.4456,-2.4447,-2.4437,-2.4431,-2.4431,-2.4547,-2.4456,-2.4457,-2.4458,-2.4458,-2.4459,-2.4441,-2.4424,-2.4427,-2.4415,-2.4416,-2.4413,-2.4398,-2.4407,-2.4396,-2.4386,-2.4401,-2.4381,-2.4383,-2.4374,-2.4373,-2.4358,-2.4373,-2.4361,-2.4357,-2.4353,-2.4347,-2.4438,-2.4357,-2.4358,-2.4358,-2.4358,-2.4358,0,-2.4344,-2.4349,-2.4338,-2.4334,-2.4325,-2.4349,-2.4347,-2.4337,-2.432,-2.4321,-2.4312,-2.4295,-2.4283,-2.4292,-2.4282,-2.4268,-2.4276,-2.4264,-2.4263,-2.4262,-2.4336,-2.4343,-2.4258,-2.4258,-2.4258,-2.4258,-2.4258,-2.4258,-2.4292,-2.4263,-2.4275,-2.4248,-2.4253,-2.4236,-2.4233,-2.4231,-2.4231,-2.4212,-2.4203,-2.421,-2.4214,-2.4205,-2.4195,-2.4198,-2.4191,-2.4175,-2.4181,-2.4248,-2.4257,-2.4267,-2.4273,-2.4174,-2.4174,-2.4108,-2.4107,-2.4107]}]]